2024-153B

Last updated on Sun Sep 29 2024 00:02:03 GMT+0000 (Coordinated Universal Time)

1 60746U 24153B 24272.54862104 .00022124 00000+0 13298-2 0 9990 2 60746 97.6183 29.9142 0016542 183.8528 176.2577 15.10769123 4586
UTC large
Height (km)
Speed (km/s)
/
Latitude / Longitude
Inclination (degrees)
Orbital Period (minutes)
Azimuth
Elevation
Range (km)
Doppler Factor

Next 0 passes for location: London (51.5072 / 0.1276)

Sorry there are no passes over London.